Location: Bauerbach
(50.4985°N, 10.3912°E)
Time: 14:09:16
(UTC+00:00)

Meteor 1-11 Rocket - Pass Details

Date: 13 January 2026
Orbit: 829 x 915 km, 81.2° (Epoch: 9 February)

Event Time Altitude Azimuth Distance (km) Brightness Sun altitude
Exits shadow 05:13:39 30° 266° (W) 1,542 4.5 -18.5°
Maximum altitude 05:15:04 34° 293° (WNW) 1,428 4.3 -18.3°
Drops below altitude 10° 05:20:17 10° 358° (N) 2,537 6.0 -17.5°
Sets 05:22:58 0° 8° (N) 3,464 6.8 -17.0°
